Temp
-11 -12 -10 -9 -9 -10 -10 -11 -10 -10 -11 -13 -10 -11 -13 -11 -10 -10 -11 -10 -9 -10 -10 -11 -10 -10 -10 -10 -10 -11 -11 -12 -12 -12 -13 -13 -13 -14 -14 -14 -13 -13 -12 -12
-12 -10 -8 -10 -10 -11 -11 -11 -10 -11 -11 -13 -12 -13 -11 -11 -11 -9 -9 -9 -9 -10 -10 -10 -10 -9 -10 -10 -11 -11 -12 -12 -12 -13 -13 -13 -13 -13 -13 -13 -12 -12 -12 -12
-11 -8 -11 -10 -11 -10 -10 -10 -10 -10 -12 -13 -13 -12 -9 -10 -10 -10 -9 -9 -10 -10 -10 -10 -10 -10 -10 -11 -11 -11 -12 -12 -12 -13 -12 -12 -12 -12 -12 -12 -12 -12 -13 -13
-11 -9 -10 -11 -10 -10 -10 -10 -10 -11 -11 -11 -13 -9 -9 -9 -9 -9 -9 -9 -10 -10 -10 -10 -10 -11 -10 -11 -11 -11 -11 -12 -12 -11 -12 -12 -12 -12 -12 -13 -12 -12 -13 -13
-9 -10 -11 -11 -8 -12 -8 -12 -11 -11 -11 -12 -11 -10 -9 -9 -9 -10 -11 -10 -10 -10 -10 -10 -10 -11 -11 -11 -11 -11 -11 -11 -11 -11 -11 -11 -12 -12 -12 -12 -12 -13 -13 -13
-10 -11 -12 -10 -11 -12 -12 -12 -12 -12 -11 -11 -9 -11 -8 -9 -10 -10 -10 -10 -10 -10 -10 -10 -10 -11 -11 -11 -11 -11 -11 -11 -11 -11 -11 -11 -12 -12 -12 -12 -12 -13 -13 -13
-12 -13 -12 -12 -12 -12 -12 -12 -14 -12 -10 -8 -10 -10 -8 -9 -10 -9 -10 -10 -10 -10 -10 -10 -11 -11 -11 -11 -11 -11 -11 -10 -11 -11 -11 -12 -12 -12 -12 -12 -12 -13 -13 -13
-18 -15 -13 -10 -10 -10 -11 -12 -9 -9 -10 -9 -12 -9 -8 -10 -9 -10 -10 -10 -10 -10 -10 -11 -11 -11 -11 -11 -11 -11 -10 -11 -11 -11 -11 -12 -12 -12 -12 -12 -12 -12 -13 -13
-20 -17 -15 -14 -12 -12 -10 -14 -8 -13 -12 -12 -11 -12 -12 -10 -10 -10 -10 -10 -10 -11 -11 -11 -11 -11 -11 -11 -11 -10 -11 -11 -11 -11 -12 -12 -11 -11 -12 -12 -12 -12 -12 -12
-20 -20 -18 -18 -14 -13 -15 -10 -15 -12 -11 -12 -12 -11 -11 -11 -11 -10 -10 -10 -11 -11 -11 -11 -12 -11 -11 -10 -10 -10 -11 -11 -11 -11 -11 -11 -11 -12 -12 -12 -12 -12 -12 -12
-21 -20 -18 -18 -18 -14 -14 -15 -12 -12 -13 -12 -12 -11 -11 -12 -11 -11 -11 -11 -11 -11 -11 -12 -11 -11 -10 -10 -10 -11 -11 -11 -11 -11 -11 -11 -11 -12 -12 -12 -12 -12 -12 -12
-22 -20 -19 -19 -18 -16 -15 -16 -12 -11 -11 -13 -11 -12 -11 -11 -11 -11 -12 -11 -11 -12 -12 -12 -11 -11 -10 -10 -11 -11 -11 -11 -11 -11 -11 -11 -12 -12 -12 -12 -12 -12 -12 -12
-21 -20 -18 -18 -17 -17 -17 -16 -14 -12 -14 -13 -12 -12 -11 -11 -11 -11 -11 -12 -12 -12 -12 -12 -11 -11 -10 -10 -11 -11 -11 -11 -11 -11 -11 -11 -12 -12 -11 -11 -12 -12 -12 -12
-21 -20 -18 -16 -18 -17 -17 -16 -15 -13 -14 -13 -13 -13 -12 -12 -11 -11 -11 -12 -12 -12 -12 -12 -11 -11 -10 -10 -11 -11 -11 -11 -11 -11 -11 -11 -12 -12 -12 -12 -12 -12 -12 -12
-21 -20 -18 -17 -17 -17 -16 -15 -15 -15 -14 -13 -13 -13 -12 -13 -12 -11 -12 -12 -12 -12 -12 -12 -11 -11 -10 -10 -11 -11 -11 -11 -11 -11 -11 -11 -12 -12 -12 -12 -12 -12 -12 -12
-20 -20 -19 -18 -16 -16 -16 -16 -15 -15 -15 -14 -13 -13 -13 -13 -11 -12 -12 -12 -12 -12 -12 -11 -11 -11 -10 -11 -11 -11 -11 -11 -11 -11 -11 -11 -11 -12 -12 -12 -12 -12 -12 -12
-20 -20 -20 -18 -17 -16 -16 -16 -15 -15 -15 -15 -14 -14 -14 -14 -13 -13 -12 -13 -13 -12 -12 -11 -11 -11 -11 -11 -11 -11 -11 -11 -11 -11 -11 -11 -11 -12 -12 -12 -12 -12 -12 -12
-20 -20 -19 -18 -17 -17 -16 -16 -16 -15 -15 -15 -15 -13 -14 -13 -13 -12 -11 -12 -13 -13 -12 -11 -11 -11 -11 -11 -11 -11 -11 -11 -11 -11 -11 -11 -12 -12 -12 -12 -12 -12 -12 -12
-20 -19 -18 -18 -17 -17 -16 -16 -16 -16 -16 -15 -14 -16 -14 -12 -11 -12 -12 -12 -12 -12 -12 -12 -11 -11 -11 -11 -11 -11 -11 -11 -11 -11 -11 -11 -12 -12 -12 -12 -12 -12 -12 -12
-20 -18 -19 -18 -17 -16 -16 -16 -16 -16 -16 -12 -12 -12 -12 -12 -13 -12 -12 -12 -12 -12 -11 -11 -11 -11 -11 -11 -11 -11 -11 -11 -11 -11 -11 -11 -12 -12 -12 -12 -12 -12 -12 -12
-19 -19 -20 -20 -17 -16 -15 -16 -17 -15 -13 -12 -12 -12 -13 -13 -13 -12 -13 -13 -12 -12 -11 -11 -11 -11 -11 -11 -11 -11 -11 -11 -11 -12 -12 -12 -12 -12 -12 -13 -13 -12 -12 -12
-20 -19 -19 -20 -18 -16 -17 -16 -16 -14 -13 -13 -12 -13 -12 -13 -13 -13 -12 -13 -12 -12 -12 -12 -11 -11 -11 -11 -11 -11 -11 -11 -11 -12 -12 -12 -12 -12 -12 -12 -12 -12 -12 -12
-20 -19 -19 -19 -19 -17 -17 -15 -14 -14 -13 -13 -13 -13 -12 -13 -13 -13 -13 -12 -12 -12 -12 -12 -12 -12 -12 -11 -11 -11 -11 -11 -11 -12 -12 -12 -12 -12 -12 -12 -12 -12 -12 -12
-20 -20 -19 -18 -18 -17 -16 -16 -15 -14 -14 -13 -13 -13 -13 -13 -13 -13 -13 -13 -12 -12 -12 -12 -12 -12 -12 -11 -11 -11 -11 -11 -12 -12 -12 -12 -12 -12 -12 -12 -12 -12 -12 -12
-20 -19 -19 -18 -18 -18 -17 -16 -16 -14 -14 -14 -14 -13 -13 -13 -13 -13 -13 -13 -13 -12 -12 -12 -12 -12 -13 -12 -11 -11 -11 -12 -12 -12 -12 -12 -12 -12 -12 -12 -12 -12 -12 -12
-20 -19 -19 -18 -18 -17 -17 -17 -16 -15 -14 -14 -14 -14 -13 -13 -13 -13 -13 -13 -12 -12 -12 -12 -12 -13 -12 -12 -12 -11 -11 -12 -12 -12 -12 -12 -12 -12 -12 -12 -12 -12 -12 -12
Height
5718 5717 5729 5746 5752 5760 5760 5759 5762 5770 5775 5771 5771 5771 5775 5773 5774 5776 5777 5777 5777 5781 5781 5780 5781 5782 5782 5779 5777 5777 5775 5774 5772 5770 5768 5766 5763 5760 5755 5751 5747 5741 5736 5731
5694 5705 5733 5736 5744 5742 5748 5750 5756 5762 5765 5766 5764 5761 5763 5765 5762 5766 5768 5772 5768 5768 5771 5773 5774 5775 5775 5774 5772 5772 5770 5769 5767 5765 5762 5760 5757 5753 5749 5743 5740 5735 5728 5723
5678 5711 5716 5723 5726 5730 5737 5742 5751 5755 5755 5754 5754 5749 5756 5757 5755 5755 5759 5758 5753 5759 5764 5766 5765 5769 5769 5767 5767 5766 5765 5763 5761 5759 5756 5754 5750 5746 5742 5737 5731 5727 5721 5716
5664 5697 5697 5703 5710 5723 5728 5737 5742 5744 5744 5745 5751 5741 5747 5748 5750 5749 5746 5747 5750 5753 5754 5757 5758 5762 5761 5761 5761 5761 5760 5758 5756 5753 5751 5748 5745 5740 5736 5731 5724 5718 5714 5708
5668 5670 5677 5682 5705 5710 5723 5729 5732 5734 5735 5739 5741 5736 5741 5744 5743 5741 5739 5740 5743 5747 5749 5751 5753 5756 5756 5757 5757 5756 5754 5752 5751 5748 5746 5743 5738 5735 5730 5724 5719 5714 5708 5703
5645 5651 5658 5677 5688 5697 5713 5718 5722 5725 5729 5727 5736 5730 5733 5741 5734 5736 5734 5734 5738 5741 5743 5745 5749 5750 5752 5752 5751 5751 5749 5747 5745 5743 5740 5737 5734 5729 5725 5720 5715 5708 5703 5699
5624 5626 5640 5657 5670 5686 5696 5705 5710 5716 5718 5720 5728 5725 5730 5735 5729 5728 5728 5730 5731 5733 5738 5741 5744 5746 5747 5747 5747 5745 5744 5742 5740 5738 5735 5732 5729 5725 5721 5716 5710 5705 5701 5697
5598 5607 5625 5649 5658 5673 5681 5691 5700 5706 5713 5718 5720 5719 5727 5727 5725 5723 5725 5727 5728 5732 5735 5737 5740 5742 5743 5743 5743 5741 5740 5738 5736 5733 5731 5728 5725 5722 5717 5712 5707 5703 5699 5696
5586 5595 5617 5626 5641 5652 5668 5673 5702 5707 5716 5718 5723 5719 5720 5722 5722 5723 5724 5726 5727 5730 5733 5736 5738 5739 5739 5740 5739 5738 5736 5734 5732 5729 5727 5725 5721 5718 5713 5710 5705 5702 5699 5698
5580 5585 5598 5616 5629 5638 5655 5682 5684 5694 5703 5712 5718 5722 5721 5720 5722 5721 5723 5724 5726 5728 5731 5733 5735 5736 5736 5736 5736 5734 5732 5730 5728 5726 5724 5721 5718 5715 5711 5708 5704 5702 5700 5699
5571 5575 5588 5605 5609 5628 5644 5657 5671 5691 5698 5707 5714 5718 5715 5717 5719 5720 5722 5722 5724 5727 5729 5731 5732 5732 5733 5733 5732 5731 5729 5727 5725 5723 5721 5717 5715 5712 5710 5707 5704 5702 5701 5700
5562 5568 5581 5597 5612 5622 5638 5652 5665 5674 5688 5700 5710 5714 5710 5712 5716 5718 5721 5721 5723 5725 5728 5729 5729 5729 5730 5730 5729 5728 5726 5725 5723 5721 5718 5715 5713 5710 5708 5706 5703 5702 5702 5701
5555 5564 5577 5587 5601 5613 5627 5643 5659 5672 5687 5693 5705 5709 5706 5709 5714 5717 5717 5719 5721 5724 5726 5726 5727 5727 5727 5728 5726 5726 5725 5723 5721 5719 5716 5714 5711 5710 5708 5706 5704 5703 5702 5703
5550 5558 5570 5582 5603 5616 5623 5637 5652 5664 5674 5688 5698 5701 5702 5706 5709 5712 5714 5718 5720 5722 5723 5724 5725 5726 5726 5725 5724 5725 5724 5722 5719 5717 5715 5713 5711 5709 5708 5706 5705 5703 5703 5704
5549 5557 5568 5570 5586 5598 5623 5635 5647 5655 5671 5684 5692 5698 5701 5702 5702 5708 5712 5715 5718 5719 5720 5722 5722 5723 5724 5723 5724 5724 5723 5720 5718 5717 5715 5713 5711 5709 5708 5706 5705 5704 5704 5705
5550 5558 5561 5571 5584 5591 5612 5626 5641 5654 5663 5677 5688 5691 5697 5698 5701 5707 5710 5713 5716 5717 5719 5719 5720 5721 5722 5722 5722 5723 5722 5720 5718 5717 5715 5713 5710 5708 5707 5706 5705 5705 5705 5706
5549 5556 5560 5569 5574 5592 5607 5619 5635 5648 5658 5670 5679 5685 5691 5692 5695 5703 5702 5710 5714 5715 5716 5717 5718 5720 5721 5721 5721 5722 5721 5720 5719 5717 5715 5713 5711 5708 5707 5706 5705 5706 5706 5706
5547 5552 5560 5573 5577 5588 5605 5619 5634 5645 5655 5663 5672 5677 5682 5682 5683 5689 5698 5704 5708 5713 5715 5715 5717 5718 5720 5721 5721 5721 5721 5720 5720 5718 5716 5714 5712 5710 5709 5708 5707 5707 5707 5707
5548 5555 5561 5570 5578 5593 5605 5615 5626 5637 5646 5644 5654 5663 5665 5668 5683 5692 5700 5705 5708 5709 5712 5714 5716 5718 5719 5720 5721 5721 5721 5720 5720 5719 5718 5716 5714 5713 5713 5712 5710 5709 5708 5708
5551 5555 5560 5567 5580 5588 5596 5605 5613 5623 5623 5639 5648 5654 5661 5678 5685 5687 5696 5701 5705 5710 5711 5714 5716 5718 5719 5720 5720 5721 5722 5721 5721 5720 5720 5719 5717 5717 5716 5715 5713 5711 5710 5709
5554 5559 5562 5566 5578 5584 5593 5601 5612 5624 5629 5637 5645 5654 5662 5671 5672 5685 5691 5697 5703 5707 5711 5714 5715 5717 5718 5720 5720 5721 5722 5722 5722 5722 5722 5722 5721 5721 5719 5718 5716 5715 5714 5713
5554 5559 5563 5570 5575 5586 5587 5595 5607 5612 5623 5632 5640 5648 5658 5668 5674 5683 5689 5695 5701 5705 5709 5712 5714 5716 5717 5720 5721 5721 5722 5723 5723 5723 5724 5724 5724 5723 5723 5722 5721 5719 5718 5718
5555 5555 5559 5568 5573 5578 5585 5594 5601 5611 5621 5628 5637 5645 5653 5663 5670 5680 5687 5693 5699 5703 5707 5711 5713 5715 5716 5719 5721 5722 5722 5724 5724 5725 5725 5726 5726 5726 5726 5725 5725 5724 5724 5724
5553 5555 5559 5564 5567 5571 5581 5593 5601 5612 5622 5628 5635 5641 5651 5660 5668 5677 5684 5690 5696 5700 5704 5709 5712 5714 5715 5717 5720 5721 5722 5724 5725 5726 5726 5727 5728 5728 5728 5728 5728 5728 5729 5729
5551 5554 5557 5561 5566 5573 5582 5591 5601 5609 5618 5626 5633 5639 5649 5657 5665 5673 5680 5686 5692 5698 5702 5707 5710 5712 5714 5716 5718 5720 5722 5724 5725 5726 5727 5728 5729 5730 5730 5731 5732 5732 5733 5734
5550 5554 5557 5560 5566 5574 5582 5590 5599 5607 5615 5623 5631 5636 5645 5653 5662 5669 5677 5683 5689 5694 5699 5704 5708 5711 5713 5715 5717 5718 5720 5723 5725 5726 5727 5728 5730 5731 5733 5734 5735 5736 5737 5738
Wind_Speed
66 69 63 52 54 52 57 60 58 50 47 41 47 46 44 49 44 43 41 46 49 43 46 42 39 33 32 30 28 28 28 29 30 30 31 35 38 41 42 44 38 38 37 37
75 70 46 55 51 57 55 55 50 48 48 37 45 48 45 46 46 43 43 42 48 43 39 36 35 30 32 28 26 27 30 30 31 32 35 38 41 41 41 40 36 37 40 38
76 55 59 57 58 57 53 52 47 44 43 38 43 50 42 43 43 43 36 39 46 38 31 32 32 27 29 26 23 26 29 30 32 33 36 38 38 38 36 36 37 37 37 34
73 63 66 63 61 55 51 46 46 47 48 45 35 46 41 42 38 38 41 40 35 28 29 26 29 26 27 23 24 26 28 30 31 32 32 33 33 31 33 33 36 33 30 30
65 67 71 71 57 56 47 41 44 46 47 40 42 47 40 38 37 33 30 31 29 27 26 25 25 27 24 25 25 28 31 32 31 31 30 30 28 26 30 29 27 29 26 23
67 64 67 67 66 61 50 46 47 46 43 46 40 49 38 29 34 23 25 26 23 25 27 25 24 23 22 24 26 29 32 32 30 27 26 23 22 25 23 24 25 23 21 14
66 68 69 66 70 65 60 54 46 46 48 43 39 44 34 26 30 27 25 20 25 29 20 22 20 20 20 23 26 30 30 26 25 21 20 18 20 18 21 22 21 17 14 12
54 65 68 65 68 69 67 62 59 54 46 40 39 42 28 23 23 15 11 17 19 20 21 20 19 19 20 23 26 26 22 22 18 18 15 17 15 16 19 16 12 12 11 7
40 56 59 69 70 72 69 63 48 39 25 29 23 24 25 20 15 12 13 14 16 16 18 18 17 18 21 24 24 21 19 16 15 13 12 14 13 16 13 11 8 8 8 4
32 43 52 53 70 69 57 53 48 50 46 31 22 20 12 17 18 15 14 15 17 16 16 15 16 20 21 20 20 17 15 13 12 10 13 14 12 12 8 6 5 5 3 4
39 42 48 55 56 69 68 52 58 45 38 32 24 20 25 23 28 18 11 15 14 15 14 15 19 20 20 17 15 14 11 11 10 11 14 11 11 6 5 2 3 3 2 3
34 48 36 45 39 62 62 51 55 57 47 32 24 21 24 22 25 20 16 15 12 12 13 16 17 18 17 14 12 9 9 9 9 12 9 9 8 3 2 1 3 3 3 3
37 49 44 50 46 48 46 51 50 50 36 33 24 22 20 28 23 21 22 14 13 14 16 17 16 17 14 12 8 7 8 8 9 9 5 7 4 1 1 2 3 4 4 4
35 50 54 27 44 38 46 49 46 51 42 33 31 18 25 25 27 23 21 18 17 15 17 16 16 15 12 9 6 6 7 8 7 5 4 4 2 1 2 2 3 4 6 7
29 41 59 25 50 49 47 47 46 50 39 33 31 23 24 21 30 27 25 21 18 17 16 16 14 12 11 6 6 6 6 5 4 1 4 8 4 0 2 4 4 4 7 9
19 40 51 38 48 51 48 45 43 45 44 33 23 29 22 23 26 29 28 24 21 18 13 13 10 10 8 5 4 4 4 1 1 3 6 8 2 1 1 1 4 6 7 9
22 38 52 32 40 44 41 48 44 41 43 34 27 32 38 20 35 34 38 29 23 19 15 10 9 10 6 4 3 4 2 2 1 3 6 8 4 5 5 3 5 8 7 8
28 49 30 35 36 37 36 43 39 36 38 35 28 39 37 43 46 46 37 33 28 21 15 10 11 12 8 3 3 3 2 2 3 5 6 9 5 6 5 7 9 8 8 8
26 53 51 21 26 34 30 35 34 35 39 48 49 39 52 52 39 41 33 30 28 25 18 12 11 13 10 4 3 3 3 3 4 6 7 9 7 8 7 7 7 4 3 2
25 43 56 30 36 31 31 44 47 48 51 52 52 54 48 32 42 42 34 32 31 25 19 14 12 13 11 6 4 2 4 4 5 6 7 11 13 13 11 7 8 10 11 8
22 29 34 51 26 30 29 33 39 42 44 44 42 44 48 48 51 40 37 36 31 25 20 16 14 13 13 8 4 2 4 5 6 7 8 11 12 12 13 14 10 7 9 12
17 20 33 34 39 23 24 29 45 53 46 42 43 43 49 54 48 41 39 37 31 26 20 17 17 14 11 12 7 3 4 6 7 7 8 9 11 11 11 11 13 13 12 11
18 18 28 37 41 31 38 32 51 48 45 42 43 42 51 58 51 43 41 37 32 27 22 19 17 14 10 12 10 6 3 6 7 8 7 6 7 8 10 11 10 12 14 16
17 19 25 39 53 26 43 39 36 40 38 37 40 48 55 58 52 45 43 40 33 29 23 20 18 14 10 11 13 10 5 4 8 8 9 8 7 8 11 11 11 11 12 14
17 18 22 33 40 42 28 37 33 37 38 37 37 47 58 56 52 47 44 42 36 32 27 21 21 16 14 12 12 13 9 6 7 9 9 8 8 9 11 14 15 15 17 19
13 14 17 25 28 35 39 33 37 35 36 33 36 45 59 56 51 48 44 40 37 33 29 25 24 18 16 14 13 12 11 10 8 10 11 11 11 11 13 13 14 15 16 18
Wind_Direction
240 239 241 245 250 256 255 257 262 268 276 270 276 268 267 276 274 270 267 268 268 268 271 274 275 279 268 277 291 289 285 285 287 285 286 290 295 298 299 301 302 301 303 301
239 240 247 243 244 245 248 254 258 264 266 257 268 271 274 277 277 271 270 270 272 269 270 272 274 270 263 278 282 281 281 289 289 286 285 288 290 293 295 299 300 301 301 298
239 245 241 241 241 243 244 248 256 264 263 260 264 268 275 276 276 276 273 264 262 267 262 264 264 258 262 273 274 278 286 291 285 283 284 286 289 292 298 300 301 303 300 301
238 235 236 234 236 241 243 249 250 252 257 263 268 273 267 273 279 281 272 267 271 260 253 255 257 251 266 269 272 278 281 285 281 286 289 290 289 297 301 299 304 303 308 305
237 235 232 232 237 235 238 239 246 249 252 256 262 269 271 276 285 287 280 267 261 253 246 246 245 253 263 267 272 277 284 284 283 286 287 288 299 301 301 304 306 309 311 304
231 230 228 233 229 229 229 230 237 244 250 252 263 265 271 283 286 288 276 263 255 236 234 234 238 258 265 264 269 280 288 287 283 287 287 298 298 303 307 307 313 312 314 317
230 222 222 222 225 227 225 224 228 236 243 260 258 265 279 280 283 281 259 249 234 225 220 223 244 255 257 264 274 285 287 283 285 284 297 298 301 308 311 316 316 318 328 333
228 221 220 221 222 228 223 223 230 236 241 256 263 268 270 284 293 274 241 224 225 211 219 226 241 244 261 271 287 283 278 287 283 296 294 300 304 308 315 323 323 332 338 343
226 223 216 213 216 216 221 220 231 222 244 247 258 273 283 280 261 214 218 225 227 220 224 230 234 254 267 275 283 276 282 282 294 298 296 305 304 309 321 322 339 350 353 7
215 220 212 209 214 213 204 222 210 218 222 237 239 239 240 273 206 206 217 219 215 214 216 222 241 260 274 281 273 276 283 287 298 296 306 307 302 312 322 319 352 16 22 57
211 208 204 204 212 210 203 204 212 217 219 226 233 249 261 231 219 216 210 216 212 219 214 231 253 274 283 269 275 281 277 297 289 302 312 306 307 309 318 342 44 49 102 66
212 210 196 207 204 208 209 206 207 208 210 212 225 234 245 230 215 207 202 212 208 208 223 248 272 281 270 270 277 263 289 291 289 311 313 310 299 312 307 72 86 102 147 126
210 199 184 190 192 213 196 204 209 205 203 214 203 216 234 213 213 213 224 210 211 219 239 258 276 283 260 262 257 270 289 292 295 317 323 306 320 83 139 100 97 122 128 151
209 195 178 190 196 200 190 199 202 204 201 204 190 221 208 213 212 208 210 205 211 226 244 259 270 266 261 255 254 269 288 297 308 311 335 307 1 148 88 106 125 136 140 154
211 198 187 189 179 181 193 192 197 203 196 200 198 196 194 200 210 203 208 205 213 231 244 258 262 256 242 237 250 267 288 315 322 280 346 328 326 193 72 97 133 140 157 165
212 190 196 210 180 171 194 191 195 196 200 187 196 188 174 205 216 205 213 212 214 225 241 255 255 246 225 221 234 259 297 47 52 21 10 351 350 65 101 150 130 154 149 168
195 186 200 196 160 173 185 187 195 194 200 185 188 181 188 196 202 205 213 207 215 227 233 236 229 216 202 205 220 243 276 130 73 24 7 13 85 76 111 90 128 147 150 153
187 184 193 190 153 172 176 182 187 195 196 194 186 186 194 199 203 207 206 202 200 211 218 224 215 195 192 177 213 220 218 127 55 46 29 33 82 82 105 99 130 138 136 153
189 190 184 164 153 182 167 175 178 191 195 195 189 186 198 205 207 206 206 207 221 204 204 211 217 202 189 167 186 204 182 138 59 58 50 45 91 93 103 119 106 126 152 161
186 191 194 158 154 165 183 187 181 182 203 192 197 202 211 198 197 207 203 207 215 228 209 206 216 210 193 168 130 199 178 135 94 81 81 81 87 78 77 103 91 98 99 94
213 203 209 220 172 186 193 200 195 199 201 195 198 198 200 200 206 200 201 207 210 206 210 206 213 214 195 183 147 156 188 143 116 103 102 101 98 85 79 75 89 108 103 85
212 196 195 202 197 210 195 178 188 200 196 196 194 198 198 195 202 201 205 208 207 205 200 200 214 215 198 196 181 153 178 170 137 119 115 110 106 100 94 90 85 85 97 115
173 181 186 191 202 217 209 188 193 194 188 194 192 196 195 193 200 199 206 212 208 207 201 197 203 214 208 201 195 193 169 188 163 136 127 125 123 108 116 108 100 95 91 90
185 183 180 185 201 188 197 203 203 193 191 192 185 193 191 193 198 200 205 211 211 208 204 198 195 209 216 203 199 205 199 189 191 161 140 129 128 119 116 122 120 114 112 109
176 191 193 186 202 214 195 198 197 189 189 187 186 192 190 196 197 202 207 212 213 207 208 204 198 205 221 209 201 211 206 214 205 188 165 147 137 135 125 121 116 115 114 112
179 164 195 190 192 200 205 204 194 193 191 182 185 187 193 198 199 204 209 210 209 208 208 208 203 204 224 224 210 208 208 211 222 202 190 176 160 157 149 139 130 124 124 124